Gadsden, AL

5:00 AM CDT on September 25, 2017 (GMT -0500)
Gadsden Municipal

Weather History for KGAD - October, 2011

Change the Weather History Date:

Thursday, October 13, 2011

  Actual Average Record
Temperature  
Mean Temperature 63 °F -  
Max Temperature 71 °F 71 °F 88 °F (1949)
Min Temperature 55 °F 48 °F 31 °F (1946)
Degree Days  
Heating Degree Days 2    
Growing Degree Days 13 (Base 50)    
Moisture  
Dew Point 57 °F    
Average Humidity 80    
Maximum Humidity 94    
Minimum Humidity 53    
Precipitation  
Precipitation 0.11 in - - ()
Sea Level Pressure  
Sea Level Pressure 29.71 in    
Wind  
Wind Speed 5 mph (WSW)    
Max Wind Speed 17 mph    
Max Gust Speed 21 mph    
Visibility 10 miles    
Events Thunderstorm    
Averages and records for this station are not official NWS values.
T = Trace of Precipitation, MM = Missing Value Source: NWS Daily Summary

Daily Weather History Graph

Daily Weather History Graph

Search for Another Location

Airport or City:

Trip Planner

Search our weather history database for the weather conditions in past years. The results will help you decide how hot, cold, wet, or windy it might be!

Date:

Astronomy

Oct. 13, 2011 Rise Set
Actual Time 6:47 AM CDT 6:13 PM CDT
Civil Twilight 6:22 AM CDT 6:38 PM CDT
Nautical Twilight 5:53 AM CDT 7:07 PM CDT
Astronomical Twilight 5:24 AM CDT 7:36 PM CDT
Moon 6:56 PM CDT (10/13) 8:11 AM CDT (10/13)
Length of Visible Light 12h 15m
Length of Day
11h 25m
Full, 98% of the Moon is Illuminated
Oct 13
Full
Oct 19
Last Quarter
Oct 26
New
Nov 2
First Quarter
Nov 10
Full

Hourly Weather History & Observations

Time (CDT) Temp. Dew Point Humidity Pressure Visibility Wind Dir Wind Speed Gust Speed Precip Events Conditions
12:15 AM 60.8 °F 57.2 °F 88% 29.78 in 10.0 mi SSW 3.5 mph - N/A   Overcast
12:35 AM 60.8 °F 57.2 °F 88% 29.77 in 10.0 mi Calm Calm - N/A   Overcast
12:55 AM 60.8 °F 57.2 °F 88% 29.76 in 10.0 mi Calm Calm - N/A   Overcast
1:15 AM 60.8 °F 57.2 °F 88% 29.76 in 10.0 mi Calm Calm - N/A   Overcast
1:35 AM 60.8 °F 57.2 °F 88% 29.75 in 10.0 mi Calm Calm - N/A   Overcast
1:55 AM 60.8 °F 57.2 °F 88% 29.75 in 10.0 mi Calm Calm - N/A   Overcast
2:15 AM 60.8 °F 57.2 °F 88% 29.74 in 10.0 mi Calm Calm - N/A   Overcast
2:35 AM 60.8 °F 57.2 °F 88% 29.73 in 10.0 mi Calm Calm - N/A   Overcast
2:55 AM 60.8 °F 57.2 °F 88% 29.73 in 10.0 mi Calm Calm - N/A   Overcast
3:15 AM 60.8 °F 57.2 °F 88% 29.72 in 10.0 mi South 3.5 mph - N/A   Overcast
3:35 AM 60.8 °F 57.2 °F 88% 29.72 in 8.0 mi Calm Calm - N/A   Overcast
3:55 AM 60.8 °F 57.2 °F 88% 29.72 in 8.0 mi SSW 3.5 mph - N/A   Overcast
4:15 AM 60.8 °F 59.0 °F 94% 29.71 in 7.0 mi SSW 4.6 mph - N/A   Overcast
4:35 AM 62.6 °F 59.0 °F 88% 29.71 in 7.0 mi South 4.6 mph - N/A   Overcast
4:55 AM 62.6 °F 59.0 °F 88% 29.70 in 8.0 mi Calm Calm - N/A   Overcast
5:15 AM 62.6 °F 59.0 °F 88% 29.70 in 8.0 mi South 4.6 mph - N/A   Overcast
5:35 AM 62.6 °F 59.0 °F 88% 29.70 in 5.0 mi SSW 3.5 mph - 0.01 in   Overcast
5:55 AM 62.6 °F 59.0 °F 88% 29.70 in 8.0 mi SW 4.6 mph - 0.01 in   Overcast
6:15 AM 62.6 °F 59.0 °F 88% 29.70 in 10.0 mi SW 4.6 mph - N/A   Overcast
6:55 AM 60.8 °F 57.2 °F 88% 29.70 in 5.0 mi SW 12.7 mph 18.4 mph 0.01 in   Mostly Cloudy
7:15 AM 60.8 °F 57.2 °F 88% 29.71 in 10.0 mi WSW 10.4 mph 16.1 mph N/A   Overcast
7:35 AM 60.8 °F 57.2 °F 88% 29.72 in 10.0 mi WSW 12.7 mph - N/A   Overcast
7:55 AM 60.8 °F 57.2 °F 88% 29.71 in 10.0 mi WSW 12.7 mph 19.6 mph N/A   Scattered Clouds
8:35 AM 62.6 °F 59.0 °F 88% 29.70 in 10.0 mi WSW 8.1 mph - N/A   Clear
8:55 AM 62.6 °F 57.2 °F 82% 29.71 in 10.0 mi SW 9.2 mph - N/A   Mostly Cloudy
9:15 AM 62.6 °F 57.2 °F 82% 29.71 in 10.0 mi SW 6.9 mph - N/A   Scattered Clouds
9:35 AM 62.6 °F 57.2 °F 82% 29.72 in 10.0 mi WSW 9.2 mph 17.3 mph N/A   Scattered Clouds
9:55 AM 62.6 °F 57.2 °F 82% 29.72 in 10.0 mi WSW 9.2 mph - N/A   Scattered Clouds
10:15 AM 66.2 °F 59.0 °F 78% 29.71 in 10.0 mi WSW 10.4 mph - N/A   Partly Cloudy
10:35 AM 66.2 °F 57.2 °F 73% 29.72 in 10.0 mi West 13.8 mph - N/A   Clear
10:55 AM 68.0 °F 55.4 °F 64% 29.72 in 10.0 mi WSW 11.5 mph - N/A   Scattered Clouds
11:15 AM 68.0 °F 55.4 °F 64% 29.72 in 10.0 mi West 5.8 mph - N/A   Overcast
11:35 AM 68.0 °F 55.4 °F 64% 29.71 in 10.0 mi West 10.4 mph - N/A   Scattered Clouds
11:55 AM 71.6 °F 57.2 °F 60% 29.71 in 10.0 mi WSW 17.3 mph 20.7 mph N/A   Mostly Cloudy
12:15 PM 71.6 °F 55.4 °F 57% 29.69 in 10.0 mi SW 10.4 mph 18.4 mph N/A   Mostly Cloudy
12:35 PM 69.8 °F 55.4 °F 60% 29.68 in 10.0 mi West 12.7 mph - N/A   Mostly Cloudy
12:55 PM 69.8 °F 55.4 °F 60% 29.67 in 10.0 mi West 12.7 mph 19.6 mph N/A   Mostly Cloudy
1:15 PM 69.8 °F 53.6 °F 56% 29.67 in 10.0 mi West 11.5 mph 17.3 mph N/A   Clear
1:35 PM 69.8 °F 53.6 °F 56% 29.67 in 10.0 mi West 16.1 mph 20.7 mph N/A   Scattered Clouds
2:15 PM 69.8 °F 55.4 °F 60% 29.66 in 10.0 mi NW 8.1 mph - N/A   Scattered Clouds
2:35 PM 69.8 °F 53.6 °F 56% 29.66 in 10.0 mi West 8.1 mph - N/A   Scattered Clouds
2:55 PM 71.6 °F 53.6 °F 53% 29.66 in 10.0 mi WSW 15.0 mph 20.7 mph N/A   Scattered Clouds
3:15 PM 69.8 °F 53.6 °F 56% 29.65 in 10.0 mi West 12.7 mph - N/A   Mostly Cloudy
3:35 PM 64.4 °F 57.2 °F 77% 29.66 in 10.0 mi West 5.8 mph - 0.02 in   Mostly Cloudy
3:55 PM 66.2 °F 57.2 °F 73% 29.66 in 10.0 mi West 11.5 mph - 0.02 in   Scattered Clouds
4:15 PM 66.2 °F 55.4 °F 68% 29.66 in 10.0 mi West 13.8 mph - N/A   Mostly Cloudy
4:35 PM 62.6 °F 55.4 °F 77% 29.68 in 9.0 mi NW 4.6 mph - 0.07 in   Mostly Cloudy
4:55 PM 62.6 °F 57.2 °F 82% 29.67 in 10.0 mi West 3.5 mph - 0.07 in   Partly Cloudy
5:15 PM 64.4 °F 59.0 °F 83% 29.68 in 10.0 mi WSW 3.5 mph - N/A   Clear
5:35 PM 64.4 °F 59.0 °F 83% 29.68 in 10.0 mi WSW 3.5 mph - N/A Thunderstorm Clear
5:55 PM 64.4 °F 55.4 °F 73% 29.68 in 10.0 mi West 8.1 mph - N/A   Clear
6:15 PM 60.8 °F 55.4 °F 82% 29.70 in 10.0 mi WSW 4.6 mph - N/A   Clear
6:35 PM 59.0 °F 55.4 °F 88% 29.70 in 10.0 mi WSW 3.5 mph - N/A   Clear
6:55 PM 57.2 °F 55.4 °F 94% 29.71 in 10.0 mi WSW 3.5 mph - N/A   Scattered Clouds
7:15 PM 57.2 °F 55.4 °F 94% 29.72 in 10.0 mi Calm Calm - N/A   Scattered Clouds
7:35 PM 57.2 °F 55.4 °F 94% 29.72 in 10.0 mi Calm Calm - N/A   Partly Cloudy
7:55 PM 55.4 °F 53.6 °F 94% 29.73 in 10.0 mi WSW 4.6 mph - N/A   Clear
8:15 PM 55.4 °F 53.6 °F 94% 29.74 in 10.0 mi WSW 4.6 mph - N/A   Scattered Clouds
8:35 PM 59.0 °F 55.4 °F 88% 29.75 in 10.0 mi SW 6.9 mph - N/A   Overcast
9:15 PM 59.0 °F 55.4 °F 88% 29.77 in 10.0 mi West 5.8 mph - N/A   Overcast
9:35 PM 59.0 °F 53.6 °F 82% 29.77 in 10.0 mi WSW 4.6 mph - N/A   Scattered Clouds
9:55 PM 57.2 °F 53.6 °F 88% 29.78 in 10.0 mi West 4.6 mph - N/A   Partly Cloudy
10:15 PM 59.0 °F 53.6 °F 82% 29.78 in 10.0 mi WNW 4.6 mph - N/A   Mostly Cloudy
10:35 PM 57.2 °F 53.6 °F 88% 29.78 in 10.0 mi West 3.5 mph - N/A   Mostly Cloudy
10:55 PM 57.2 °F 51.8 °F 82% 29.79 in 10.0 mi North 3.5 mph - N/A   Clear
11:15 PM 55.4 °F 51.8 °F 88% 29.80 in 10.0 mi Calm Calm - N/A   Clear
11:35 PM 55.4 °F 51.8 °F 88% 29.80 in 10.0 mi Calm Calm - N/A   Clear
11:55 PM 55.4 °F 51.8 °F 88% 29.80 in 10.0 mi Calm Calm - N/A   Clear